Find Starlink 31539

NORAD ID: 59539 Int'l Des: 2024-074 Owner: SPXS Country: US Constellation: starlink operational
LEOCIRCULAR

Live Position

Loading 3D Globe...

About Starlink 31539

Description loading...

Upcoming Passes

Passes for default location (London). Set your location on the main map for personalized predictions.

Altitude History

Loading altitude history...

Two-Line Element Set

1 59539U 24074F 26124.13886777 -.00001781 00000-0 -55182-4 0 9994
2 59539 43.0044 30.4565 0001441 283.4115 76.6576 15.27594032114499
Epoch: May 4, 2026 • Age: 7 hours

Current Status

Altitude 485.0 km
Velocity 7.63 km/s
Sub-Earth Point 33.14°N, 149.97°E
Launch Date Apr 18, 2024
Age 2 years
Type internet

Technical Details

Classification Payload
Mass 730.00 kg
Dry Mass 700.00 kg
Total Mass 730.00 kg
Length 0.30 m
Diameter 4.10 m
Span 29.00 m
Shape Box + pan
Manufacturer SPXS
Bus Type Starlink V2M
Phase Status In Orbit
Owner/State SPXS/US

Most Searched